Time,TemperatureF,DewpointF,PressureIn,WindDirection,WindDirectionDegrees,WindSpeedMPH,WindSpeedGustMPH,Humidity,HourlyPrecipIn,Conditions,Clouds,dailyrainin,SoftwareType,DateUTC
2013-05-02 00:04:00,61.1,-3.6,30.00,NW,307,0.0,0.0,7,0.00,CLR,,0.00,WeatherDisplay:10.37,2013-05-02 07:04:00,
2013-05-02 00:09:00,60.3,-4.2,30.01,NW,307,0.0,0.0,7,0.00,CLR,,0.00,WeatherDisplay:10.37,2013-05-02 07:09:00,
2013-05-02 00:19:00,58.0,-5.9,30.02,NW,307,0.0,0.0,7,0.00,CLR,,0.00,WeatherDisplay:10.37,2013-05-02 07:19:00,
2013-05-02 00:29:00,56.9,-6.7,30.02,NW,307,0.0,3.0,7,0.00,CLR,,0.00,WeatherDisplay:10.37,2013-05-02 07:29:00,
2013-05-02 00:39:00,58.7,-8.5,30.02,NW,307,1.0,3.0,6,0.00,CLR,,0.00,WeatherDisplay:10.37,2013-05-02 07:39:00,
2013-05-02 00:49:00,56.9,-6.7,30.03,NW,306,0.0,0.0,7,0.00,CLR,,0.00,WeatherDisplay:10.37,2013-05-02 07:49:00,
2013-05-02 00:59:00,54.8,-8.3,30.03,NW,306,0.0,0.0,7,0.00,CLR,,0.00,WeatherDisplay:10.37,2013-05-02 07:59:00,
2013-05-02 01:04:00,54.1,-8.8,30.03,NW,306,0.0,0.0,7,0.00,CLR,,0.00,WeatherDisplay:10.37,2013-05-02 08:04:00,
2013-05-02 01:09:00,53.3,-6.7,30.04,NW,306,0.0,0.0,8,0.00,CLR,,0.00,WeatherDisplay:10.37,2013-05-02 08:09:00,
2013-05-02 01:19:00,52.4,-7.4,30.04,NW,306,0.0,0.0,8,0.00,CLR,,0.00,WeatherDisplay:10.37,2013-05-02 08:19:00,
2013-05-02 01:29:00,51.6,-5.5,30.04,NW,306,0.0,0.0,9,0.00,CLR,,0.00,WeatherDisplay:10.37,2013-05-02 08:29:00,
2013-05-02 01:39:00,51.0,-6.0,30.04,NW,306,0.0,0.0,9,0.00,CLR,,0.00,WeatherDisplay:10.37,2013-05-02 08:39:00,
2013-05-02 01:49:00,50.7,-4.0,30.05,NW,306,0.0,0.0,10,0.00,CLR,,0.00,WeatherDisplay:10.37,2013-05-02 08:49:00,
2013-05-02 01:59:00,50.5,-6.4,30.05,NW,306,0.0,0.0,9,0.00,CLR,,0.00,WeatherDisplay:10.37,2013-05-02 08:59:00,
2013-05-02 02:04:00,50.7,-8.6,30.06,NW,306,0.0,0.0,8,0.00,CLR,,0.00,WeatherDisplay:10.37,2013-05-02 09:04:00,
2013-05-02 02:09:00,52.0,-7.6,30.05,NW,306,0.0,0.0,8,0.00,CLR,,0.00,WeatherDisplay:10.37,2013-05-02 09:09:00,
2013-05-02 02:19:00,54.4,-5.8,30.05,NW,307,0.0,0.0,8,0.00,CLR,,0.00,WeatherDisplay:10.37,2013-05-02 09:19:00,
2013-05-02 02:29:00,56.4,-7.1,30.04,NW,306,0.0,1.0,7,0.00,CLR,,0.00,WeatherDisplay:10.37,2013-05-02 09:29:00,
2013-05-02 02:39:00,57.4,-6.3,30.04,NW,306,0.0,0.0,7,0.00,CLR,,0.00,WeatherDisplay:10.37,2013-05-02 09:39:00,
2013-05-02 02:49:00,59.0,-5.2,30.04,NW,306,0.0,0.0,7,0.00,CLR,,0.00,WeatherDisplay:10.37,2013-05-02 09:49:00,
2013-05-02 02:59:00,58.9,-5.2,30.04,NNW,333,0.0,4.0,7,0.00,CLR,,0.00,WeatherDisplay:10.37,2013-05-02 09:59:00,
2013-05-02 03:04:00,59.5,-4.8,30.05,NNW,338,0.0,0.0,7,0.00,CLR,,0.00,WeatherDisplay:10.37,2013-05-02 10:04:00,
2013-05-02 03:09:00,60.2,-4.3,30.05,NNW,338,0.0,1.0,7,0.00,CLR,,0.00,WeatherDisplay:10.37,2013-05-02 10:09:00,
2013-05-02 03:19:00,59.9,-7.7,30.05,North,9,3.0,6.0,6,0.00,CLR,,0.00,WeatherDisplay:10.37,2013-05-02 10:19:00,
2013-05-02 03:29:00,61.0,-3.7,30.05,NE,53,0.0,0.0,7,0.00,CLR,,0.00,WeatherDisplay:10.37,2013-05-02 10:29:00,
2013-05-02 03:39:00,60.4,-4.1,30.06,NE,53,0.0,0.0,7,0.00,CLR,,0.00,WeatherDisplay:10.37,2013-05-02 10:39:00,
2013-05-02 03:49:00,62.0,-6.1,30.05,NE,49,0.0,9.0,6,0.00,CLR,,0.00,WeatherDisplay:10.37,2013-05-02 10:49:00,
2013-05-02 03:59:00,62.4,-2.6,30.06,ENE,64,1.0,3.0,7,0.00,CLR,,0.00,WeatherDisplay:10.37,2013-05-02 10:59:00,
2013-05-02 04:09:00,64.0,-1.5,30.05,NNW,328,1.0,10.0,7,0.00,CLR,,0.00,WeatherDisplay:10.37,2013-05-02 11:09:00,
2013-05-02 04:19:00,63.9,-1.5,30.05,North,360,1.0,6.0,7,0.00,CLR,,0.00,WeatherDisplay:10.37,2013-05-02 11:19:00,
2013-05-02 04:29:00,63.2,-2.0,30.06,ENE,57,1.0,4.0,7,0.00,CLR,,0.00,WeatherDisplay:10.37,2013-05-02 11:29:00,
2013-05-02 04:39:00,62.4,-2.6,30.06,ENE,59,0.0,7.0,7,0.00,CLR,,0.00,WeatherDisplay:10.37,2013-05-02 11:39:00,
2013-05-02 04:49:00,62.1,-2.9,30.06,NE,48,0.0,5.0,7,0.00,CLR,,0.00,WeatherDisplay:10.37,2013-05-02 11:49:00,
2013-05-02 04:59:00,61.7,-3.2,30.07,NE,41,0.0,3.0,7,0.00,CLR,,0.00,WeatherDisplay:10.37,2013-05-02 11:59:00,
2013-05-02 05:04:00,61.3,-3.5,30.08,NE,40,0.0,2.0,7,0.00,CLR,,0.00,WeatherDisplay:10.37,2013-05-02 12:04:00,
2013-05-02 05:09:00,60.9,-3.8,30.08,NE,41,0.0,4.0,7,0.00,CLR,,0.00,WeatherDisplay:10.37,2013-05-02 12:09:00,
2013-05-02 05:19:00,60.1,-4.3,30.08,NE,41,0.0,0.0,7,0.00,CLR,,0.00,WeatherDisplay:10.37,2013-05-02 12:19:00,
2013-05-02 05:29:00,59.9,-4.5,30.09,East,98,0.0,0.0,7,0.00,CLR,,0.00,WeatherDisplay:10.37,2013-05-02 12:29:00,
2013-05-02 05:39:00,58.9,-2.5,30.09,East,98,0.0,0.0,8,0.00,CLR,,0.00,WeatherDisplay:10.37,2013-05-02 12:39:00,
2013-05-02 05:49:00,57.6,-3.5,30.10,East,98,0.0,0.0,8,0.00,CLR,,0.00,WeatherDisplay:10.37,2013-05-02 12:49:00,
2013-05-02 05:59:00,57.4,-3.6,30.11,East,98,0.0,1.0,8,0.00,CLR,,0.00,WeatherDisplay:10.37,2013-05-02 12:59:00,
2013-05-02 06:04:00,56.9,-1.5,30.11,East,98,0.0,0.0,9,0.00,CLR,,0.00,WeatherDisplay:10.37,2013-05-02 13:04:00,
2013-05-02 06:09:00,57.1,-3.8,30.11,ESE,105,0.0,2.0,8,0.00,CLR,,0.00,WeatherDisplay:10.37,2013-05-02 13:09:00,
2013-05-02 06:19:00,57.8,-0.8,30.11,ESE,103,0.0,0.0,9,0.00,CLR,,0.00,WeatherDisplay:10.37,2013-05-02 13:19:00,
2013-05-02 06:29:00,58.7,-0.1,30.12,NNW,335,0.0,1.0,9,0.00,CLR,,0.00,WeatherDisplay:10.37,2013-05-02 13:29:00,
2013-05-02 06:39:00,59.0,0.1,30.12,NNW,335,0.0,0.0,9,0.00,CLR,,0.00,WeatherDisplay:10.37,2013-05-02 13:39:00,
2013-05-02 06:49:00,59.3,0.4,30.12,NNW,335,0.0,0.0,9,0.00,CLR,,0.00,WeatherDisplay:10.37,2013-05-02 13:49:00,
2013-05-02 06:59:00,60.1,1.0,30.13,NNW,335,0.0,0.0,9,0.00,CLR,,0.00,WeatherDisplay:10.37,2013-05-02 13:59:00,
2013-05-02 07:04:00,60.7,-1.1,30.12,NNW,335,0.0,0.0,8,0.00,CLR,,0.00,WeatherDisplay:10.37,2013-05-02 14:04:00,
2013-05-02 07:09:00,61.5,-0.5,30.12,NNW,335,0.0,0.0,8,0.00,CLR,,0.00,WeatherDisplay:10.37,2013-05-02 14:09:00,
2013-05-02 07:19:00,63.0,-2.2,30.12,North,353,0.0,3.0,7,0.00,CLR,,0.00,WeatherDisplay:10.37,2013-05-02 14:19:00,
2013-05-02 07:29:00,63.9,1.3,30.14,North,9,0.0,3.0,8,0.00,CLR,,0.00,WeatherDisplay:10.37,2013-05-02 14:29:00,
2013-05-02 07:39:00,64.2,1.6,30.15,ESE,120,0.0,0.0,8,0.00,CLR,,0.00,WeatherDisplay:10.37,2013-05-02 14:39:00,
2013-05-02 07:49:00,65.3,-0.5,30.14,ESE,106,5.0,7.0,7,0.00,CLR,,0.00,WeatherDisplay:10.37,2013-05-02 14:49:00,
2013-05-02 07:59:00,66.0,0.0,30.14,East,95,1.0,4.0,7,0.00,CLR,,0.00,WeatherDisplay:10.37,2013-05-02 14:59:00,
2013-05-02 08:04:00,66.5,3.3,30.14,East,89,0.0,1.0,8,0.00,CLR,,0.00,WeatherDisplay:10.37,2013-05-02 15:04:00,
2013-05-02 08:09:00,67.3,1.0,30.14,East,86,3.0,6.0,7,0.00,CLR,,0.00,WeatherDisplay:10.37,2013-05-02 15:09:00,
2013-05-02 08:19:00,67.3,1.0,30.14,ENE,76,1.0,4.0,7,0.00,CLR,,0.00,WeatherDisplay:10.37,2013-05-02 15:19:00,
2013-05-02 08:29:00,68.1,1.6,30.15,East,95,2.0,4.0,7,0.00,CLR,,0.00,WeatherDisplay:10.37,2013-05-02 15:29:00,
2013-05-02 08:39:00,68.6,-1.3,30.15,East,87,2.0,6.0,6,0.00,CLR,,0.00,WeatherDisplay:10.37,2013-05-02 15:39:00,
2013-05-02 08:49:00,68.9,-1.1,30.15,East,84,3.0,6.0,6,0.00,CLR,,0.00,WeatherDisplay:10.37,2013-05-02 15:49:00,
2013-05-02 08:59:00,69.1,-1.0,30.15,ENE,76,1.0,7.0,6,0.00,CLR,,0.00,WeatherDisplay:10.37,2013-05-02 15:59:00,
2013-05-02 09:09:00,70.2,-0.2,30.14,ENE,70,3.0,4.0,6,0.00,CLR,,0.00,WeatherDisplay:10.37,2013-05-02 16:09:00,
2013-05-02 09:19:00,70.8,0.2,30.14,East,81,2.0,5.0,6,0.00,CLR,,0.00,WeatherDisplay:10.37,2013-05-02 16:19:00,
2013-05-02 09:24:00,71.0,0.4,30.14,East,80,1.0,6.0,6,0.00,CLR,,0.00,WeatherDisplay:10.37,2013-05-02 16:24:00,
2013-05-02 09:29:00,71.6,0.8,30.14,East,79,0.0,5.0,6,0.00,CLR,,0.00,WeatherDisplay:10.37,2013-05-02 16:29:00,
2013-05-02 09:39:00,72.4,-2.5,30.14,ENE,74,2.0,5.0,5,0.00,CLR,,0.00,WeatherDisplay:10.37,2013-05-02 16:39:00,
2013-05-02 09:49:00,71.5,0.8,30.13,ENE,61,0.0,3.0,6,0.00,CLR,,0.00,WeatherDisplay:10.37,2013-05-02 16:49:00,
2013-05-02 09:59:00,72.9,-2.1,30.12,ENE,69,0.0,6.0,5,0.00,CLR,,0.00,WeatherDisplay:10.37,2013-05-02 16:59:00,
2013-05-02 10:04:00,73.3,-1.8,30.12,ENE,70,2.0,7.0,5,0.00,CLR,,0.00,WeatherDisplay:10.37,2013-05-02 17:04:00,
2013-05-02 10:09:00,73.1,-2.0,30.12,ENE,69,0.0,6.0,5,0.00,CLR,,0.00,WeatherDisplay:10.37,2013-05-02 17:09:00,
2013-05-02 10:19:00,73.5,-1.7,30.11,NE,34,5.0,10.0,5,0.00,CLR,,0.00,WeatherDisplay:10.37,2013-05-02 17:19:00,
2013-05-02 10:29:00,73.6,-6.3,30.12,ENE,68,5.0,9.0,4,0.00,CLR,,0.00,WeatherDisplay:10.37,2013-05-02 17:29:00,
2013-05-02 10:39:00,74.3,-1.1,30.12,ENE,65,1.0,5.0,5,0.00,CLR,,0.00,WeatherDisplay:10.37,2013-05-02 17:39:00,
2013-05-02 10:44:00,75.1,-5.3,30.12,ENE,64,6.0,12.0,4,0.00,CLR,,0.00,WeatherDisplay:10.37,2013-05-02 17:44:00,
2013-05-02 10:49:00,75.4,-5.0,30.12,ENE,67,3.0,9.0,4,0.00,CLR,,0.00,WeatherDisplay:10.37,2013-05-02 17:49:00,
2013-05-02 10:59:00,74.9,-5.4,30.12,ENE,72,8.0,14.0,4,0.00,CLR,,0.00,WeatherDisplay:10.37,2013-05-02 17:59:00,
2013-05-02 11:04:00,74.7,-5.5,30.12,East,85,3.0,14.0,4,0.00,CLR,,0.00,WeatherDisplay:10.37,2013-05-02 18:04:00,
2013-05-02 11:09:00,75.0,-5.3,30.12,East,96,5.0,10.0,4,0.00,CLR,,0.00,WeatherDisplay:10.37,2013-05-02 18:09:00,
2013-05-02 11:19:00,76.5,-4.3,30.11,East,91,5.0,10.0,4,0.00,CLR,,0.00,WeatherDisplay:10.37,2013-05-02 18:19:00,
2013-05-02 11:29:00,76.3,-4.4,30.12,East,89,7.0,12.0,4,0.00,CLR,,0.00,WeatherDisplay:10.37,2013-05-02 18:29:00,
2013-05-02 11:39:00,76.5,-4.3,30.11,East,100,6.0,12.0,4,0.00,CLR,,0.00,WeatherDisplay:10.37,2013-05-02 18:39:00,
2013-05-02 11:49:00,76.8,-4.1,30.11,ENE,71,8.0,16.0,4,0.00,CLR,,0.00,WeatherDisplay:10.37,2013-05-02 18:49:00,
2013-05-02 11:59:00,76.3,-4.4,30.11,East,89,9.0,20.0,4,0.00,CLR,,0.00,WeatherDisplay:10.37,2013-05-02 18:59:00,
2013-05-02 12:04:00,76.7,-4.1,30.11,East,99,12.0,15.0,4,0.00,CLR,,0.00,WeatherDisplay:10.37,2013-05-02 19:04:00,
2013-05-02 12:09:00,76.4,-4.3,30.11,East,89,10.0,20.0,4,0.00,CLR,,0.00,WeatherDisplay:10.37,2013-05-02 19:09:00,
2013-05-02 12:19:00,77.2,-3.8,30.10,East,92,10.0,20.0,4,0.00,CLR,,0.00,WeatherDisplay:10.37,2013-05-02 19:19:00,
2013-05-02 12:24:00,77.0,-3.9,30.12,East,89,9.0,20.0,4,0.00,CLR,,0.00,WeatherDisplay:10.37,2013-05-02 19:24:00,
2013-05-02 12:29:00,77.9,-3.3,30.11,East,97,12.0,21.0,4,0.00,CLR,,0.00,WeatherDisplay:10.37,2013-05-02 19:29:00,
2013-05-02 12:39:00,77.7,-3.5,30.11,East,92,15.0,23.0,4,0.00,CLR,,0.00,WeatherDisplay:10.37,2013-05-02 19:39:00,
2013-05-02 12:49:00,78.1,-3.2,30.10,East,89,12.0,21.0,4,0.00,CLR,,0.00,WeatherDisplay:10.37,2013-05-02 19:49:00,
2013-05-02 12:59:00,78.9,-8.6,30.10,East,99,14.0,20.0,3,0.00,CLR,,0.00,WeatherDisplay:10.37,2013-05-02 19:59:00,
2013-05-02 13:09:00,78.6,-8.8,30.09,East,97,10.0,20.0,3,0.00,CLR,,0.00,WeatherDisplay:10.37,2013-05-02 20:09:00,
2013-05-02 13:19:00,78.4,-8.9,30.10,East,101,13.0,20.0,3,0.00,CLR,,0.00,WeatherDisplay:10.37,2013-05-02 20:19:00,
2013-05-02 13:29:00,78.9,-8.6,30.08,East,99,8.0,20.0,3,0.00,CLR,,0.00,WeatherDisplay:10.37,2013-05-02 20:29:00,
2013-05-02 13:39:00,79.5,-8.2,30.08,East,99,10.0,18.0,3,0.00,CLR,,0.00,WeatherDisplay:10.37,2013-05-02 20:39:00,
2013-05-02 13:49:00,79.7,-8.0,30.08,East,91,14.0,20.0,3,0.00,CLR,,0.00,WeatherDisplay:10.37,2013-05-02 20:49:00,
2013-05-02 13:59:00,79.4,-8.2,30.08,East,80,9.0,14.0,3,0.00,CLR,,0.00,WeatherDisplay:10.37,2013-05-02 20:59:00,
2013-05-02 14:04:00,79.0,2.2,30.08,East,84,7.0,17.0,5,0.00,CLR,,0.00,WeatherDisplay:10.37,2013-05-02 21:04:00,
2013-05-02 14:09:00,79.4,-8.2,30.08,ESE,105,8.0,20.0,3,0.00,CLR,,0.00,WeatherDisplay:10.37,2013-05-02 21:09:00,
2013-05-02 14:19:00,80.2,-7.7,30.07,East,100,10.0,17.0,3,0.00,CLR,,0.00,WeatherDisplay:10.37,2013-05-02 21:19:00,
2013-05-02 14:29:00,80.1,-7.8,30.06,ESE,111,6.0,16.0,3,0.00,CLR,,0.00,WeatherDisplay:10.37,2013-05-02 21:29:00,
2013-05-02 14:39:00,80.4,-7.6,30.06,ESE,102,9.0,15.0,3,0.00,CLR,,0.00,WeatherDisplay:10.37,2013-05-02 21:39:00,
2013-05-02 14:49:00,79.7,-8.0,30.05,East,87,7.0,13.0,3,0.00,CLR,,0.00,WeatherDisplay:10.37,2013-05-02 21:49:00,
2013-05-02 14:59:00,80.5,-7.5,30.04,East,85,5.0,13.0,3,0.00,CLR,,0.00,WeatherDisplay:10.37,2013-05-02 21:59:00,
2013-05-02 15:04:00,79.9,-7.9,30.04,ENE,71,3.0,15.0,3,0.00,CLR,,0.00,WeatherDisplay:10.37,2013-05-02 22:04:00,
2013-05-02 15:09:00,80.1,-7.8,30.04,ENE,76,7.0,15.0,3,0.00,CLR,,0.00,WeatherDisplay:10.37,2013-05-02 22:09:00,
2013-05-02 15:19:00,81.5,-6.8,30.04,ESE,109,9.0,13.0,3,0.00,CLR,,0.00,WeatherDisplay:10.37,2013-05-02 22:19:00,
2013-05-02 15:29:00,81.8,-6.6,30.02,ESE,115,7.0,13.0,3,0.00,CLR,,0.00,WeatherDisplay:10.37,2013-05-02 22:29:00,
2013-05-02 15:39:00,81.8,-6.6,30.01,ESE,107,1.0,10.0,3,0.00,CLR,,0.00,WeatherDisplay:10.37,2013-05-02 22:39:00,
2013-05-02 15:49:00,81.6,-6.8,30.01,East,83,7.0,13.0,3,0.00,CLR,,0.00,WeatherDisplay:10.37,2013-05-02 22:49:00,
2013-05-02 15:59:00,80.9,-7.3,30.01,East,79,1.0,9.0,3,0.00,CLR,,0.00,WeatherDisplay:10.37,2013-05-02 22:59:00,
2013-05-02 16:04:00,82.0,-6.5,30.01,East,99,5.0,12.0,3,0.00,CLR,,0.00,WeatherDisplay:10.37,2013-05-02 23:04:00,
2013-05-02 16:09:00,81.5,-6.8,30.01,East,88,7.0,12.0,3,0.00,CLR,,0.00,WeatherDisplay:10.37,2013-05-02 23:09:00,
2013-05-02 16:19:00,80.9,-7.2,30.01,East,81,3.0,7.0,3,0.00,CLR,,0.00,WeatherDisplay:10.37,2013-05-02 23:19:00,
2013-05-02 16:29:00,81.4,-6.9,30.01,East,91,2.0,5.0,3,0.00,CLR,,0.00,WeatherDisplay:10.37,2013-05-02 23:29:00,
2013-05-02 16:39:00,82.0,-6.5,30.01,ESE,102,2.0,6.0,3,0.00,CLR,,0.00,WeatherDisplay:10.37,2013-05-02 23:39:00,
2013-05-02 16:49:00,82.8,-6.0,30.00,ESE,109,3.0,9.0,3,0.00,CLR,,0.00,WeatherDisplay:10.37,2013-05-02 23:49:00,
2013-05-02 16:59:00,82.3,-6.3,30.00,East,83,1.0,5.0,3,0.00,CLR,,0.00,WeatherDisplay:10.37,2013-05-02 23:59:00,
2013-05-02 17:04:00,82.0,-6.5,30.00,East,80,3.0,7.0,3,0.00,CLR,,0.00,WeatherDisplay:10.37,2013-05-03 00:04:00,
2013-05-02 17:09:00,81.6,-6.8,30.00,ENE,76,3.0,6.0,3,0.00,CLR,,0.00,WeatherDisplay:10.37,2013-05-03 00:09:00,
2013-05-02 17:19:00,81.1,-7.1,30.00,East,79,0.0,10.0,3,0.00,CLR,,0.00,WeatherDisplay:10.37,2013-05-03 00:19:00,
2013-05-02 17:29:00,81.4,-6.9,30.01,East,83,1.0,6.0,3,0.00,CLR,,0.00,WeatherDisplay:10.37,2013-05-03 00:29:00,
2013-05-02 17:39:00,82.2,-6.4,30.00,East,94,3.0,5.0,3,0.00,CLR,,0.00,WeatherDisplay:10.37,2013-05-03 00:39:00,
2013-05-02 17:49:00,81.6,-6.8,29.99,East,96,1.0,7.0,3,0.00,CLR,,0.00,WeatherDisplay:10.37,2013-05-03 00:49:00,
2013-05-02 17:59:00,81.6,-6.8,29.99,East,99,5.0,9.0,3,0.00,CLR,,0.00,WeatherDisplay:10.37,2013-05-03 00:59:00,
2013-05-02 18:04:00,81.2,-7.0,29.99,East,100,3.0,7.0,3,0.00,CLR,,0.00,WeatherDisplay:10.37,2013-05-03 01:04:00,
2013-05-02 18:09:00,81.1,-7.1,29.99,East,100,5.0,10.0,3,0.00,CLR,,0.00,WeatherDisplay:10.37,2013-05-03 01:09:00,
2013-05-02 18:19:00,80.9,-7.2,29.99,ESE,107,0.0,4.0,3,0.00,CLR,,0.00,WeatherDisplay:10.37,2013-05-03 01:19:00,
2013-05-02 18:29:00,80.9,-7.2,29.98,East,84,2.0,7.0,3,0.00,CLR,,0.00,WeatherDisplay:10.37,2013-05-03 01:29:00,
2013-05-02 18:39:00,80.7,-7.4,29.98,East,94,2.0,4.0,3,0.00,CLR,,0.00,WeatherDisplay:10.37,2013-05-03 01:39:00,
2013-05-02 18:49:00,79.8,-2.0,29.98,ESE,115,1.0,5.0,4,0.00,CLR,,0.00,WeatherDisplay:10.37,2013-05-03 01:49:00,
2013-05-02 18:59:00,79.6,-2.1,29.98,ESE,117,0.0,2.0,4,0.00,CLR,,0.00,WeatherDisplay:10.37,2013-05-03 01:59:00,
2013-05-02 19:04:00,79.6,-2.1,29.98,ESE,117,0.0,0.0,4,0.00,CLR,,0.00,WeatherDisplay:10.37,2013-05-03 02:04:00,
2013-05-02 19:09:00,79.2,-2.4,29.98,ESE,117,0.0,2.0,4,0.00,CLR,,0.00,WeatherDisplay:10.37,2013-05-03 02:09:00,
2013-05-02 19:19:00,78.5,-2.9,29.98,ESE,117,0.0,2.0,4,0.00,CLR,,0.00,WeatherDisplay:10.37,2013-05-03 02:19:00,
2013-05-02 19:29:00,76.6,-4.2,29.97,ESE,117,0.0,0.0,4,0.00,CLR,,0.00,WeatherDisplay:10.37,2013-05-03 02:29:00,
2013-05-02 19:39:00,75.1,-5.3,29.98,ESE,117,0.0,0.0,4,0.00,CLR,,0.00,WeatherDisplay:10.37,2013-05-03 02:39:00,
2013-05-02 19:49:00,73.8,-6.2,29.97,ESE,117,0.0,0.0,4,0.00,CLR,,0.00,WeatherDisplay:10.37,2013-05-03 02:49:00,
2013-05-02 19:59:00,72.5,-7.0,29.98,ESE,117,0.0,0.0,4,0.00,CLR,,0.00,WeatherDisplay:10.37,2013-05-03 02:59:00,
2013-05-02 20:04:00,71.8,-2.9,29.98,ESE,117,0.0,0.0,5,0.00,CLR,,0.00,WeatherDisplay:10.37,2013-05-03 03:04:00,
2013-05-02 20:09:00,71.3,-3.3,29.98,ESE,117,0.0,0.0,5,0.00,CLR,,0.00,WeatherDisplay:10.37,2013-05-03 03:09:00,
2013-05-02 20:19:00,70.2,-4.0,29.99,ESE,117,0.0,0.0,5,0.00,CLR,,0.00,WeatherDisplay:10.37,2013-05-03 03:19:00,
2013-05-02 20:29:00,69.4,-4.6,29.99,ESE,117,0.0,0.0,5,0.00,CLR,,0.00,WeatherDisplay:10.37,2013-05-03 03:29:00,
2013-05-02 20:39:00,68.4,-1.5,29.99,ESE,117,0.0,0.0,6,0.00,CLR,,0.00,WeatherDisplay:10.37,2013-05-03 03:39:00,
2013-05-02 20:49:00,66.9,0.7,29.99,ESE,117,0.0,0.0,7,0.00,CLR,,0.00,WeatherDisplay:10.37,2013-05-03 03:49:00,
2013-05-02 20:59:00,63.2,-9.1,30.00,South,174,3.0,5.0,5,0.00,CLR,,0.00,WeatherDisplay:10.37,2013-05-03 03:59:00,
2013-05-02 21:04:00,62.4,-5.9,30.01,SSW,197,1.0,4.0,6,0.00,CLR,,0.00,WeatherDisplay:10.37,2013-05-03 04:04:00,
2013-05-02 21:09:00,62.6,-5.7,30.00,SSW,200,0.0,2.0,6,0.00,CLR,,0.00,WeatherDisplay:10.37,2013-05-03 04:09:00,
2013-05-02 21:14:00,62.6,-5.7,30.00,SSW,200,0.0,0.0,6,0.00,CLR,,0.00,WeatherDisplay:10.37,2013-05-03 04:14:00,
2013-05-02 21:19:00,61.7,-10.1,30.01,SSW,200,0.0,0.0,5,0.00,CLR,,0.00,WeatherDisplay:10.37,2013-05-03 04:19:00,
2013-05-02 21:29:00,60.5,-4.1,30.00,SSW,200,0.0,0.0,7,0.00,CLR,,0.00,WeatherDisplay:10.37,2013-05-03 04:29:00,
2013-05-02 21:34:00,60.1,-1.5,30.01,SSW,200,0.0,0.0,8,0.00,CLR,,0.00,WeatherDisplay:10.37,2013-05-03 04:34:00,
2013-05-02 21:39:00,59.4,-2.0,30.01,SSW,200,0.0,0.0,8,0.00,CLR,,0.00,WeatherDisplay:10.37,2013-05-03 04:39:00,
2013-05-02 21:44:00,58.9,0.1,30.01,SSW,200,0.0,0.0,9,0.00,CLR,,0.00,WeatherDisplay:10.37,2013-05-03 04:44:00,
2013-05-02 21:49:00,58.4,-2.8,30.01,SSW,200,0.0,1.0,8,0.00,CLR,,0.00,WeatherDisplay:10.37,2013-05-03 04:49:00,
2013-05-02 21:59:00,59.0,-2.4,30.01,SSW,200,0.0,0.0,8,0.00,CLR,,0.00,WeatherDisplay:10.37,2013-05-03 04:59:00,
2013-05-02 22:04:00,58.9,-5.2,30.01,SSW,200,1.0,5.0,7,0.00,CLR,,0.00,WeatherDisplay:10.37,2013-05-03 05:04:00,
2013-05-02 22:09:00,58.8,-5.3,30.01,SSW,196,0.0,4.0,7,0.00,CLR,,0.00,WeatherDisplay:10.37,2013-05-03 05:09:00,
2013-05-02 22:19:00,58.3,-2.9,30.01,SSW,194,1.0,4.0,8,0.00,CLR,,0.00,WeatherDisplay:10.37,2013-05-03 05:19:00,
2013-05-02 22:29:00,58.3,-5.7,30.00,SSW,195,2.0,4.0,7,0.00,CLR,,0.00,WeatherDisplay:10.37,2013-05-03 05:29:00,
2013-05-02 22:39:00,58.4,-5.6,30.00,SSW,196,3.0,5.0,7,0.00,CLR,,0.00,WeatherDisplay:10.37,2013-05-03 05:39:00,
2013-05-02 22:49:00,59.0,-5.2,29.99,SSW,197,1.0,5.0,7,0.00,CLR,,0.00,WeatherDisplay:10.37,2013-05-03 05:49:00,
2013-05-02 22:54:00,58.9,-5.2,29.98,SSW,197,1.0,4.0,7,0.00,CLR,,0.00,WeatherDisplay:10.37,2013-05-03 05:54:00,
2013-05-02 22:59:00,58.9,-5.2,29.98,SSW,195,2.0,4.0,7,0.00,CLR,,0.00,WeatherDisplay:10.37,2013-05-03 05:59:00,
2013-05-02 23:04:00,59.0,-8.3,29.98,SSW,196,2.0,4.0,6,0.00,CLR,,0.00,WeatherDisplay:10.37,2013-05-03 06:04:00,
2013-05-02 23:09:00,59.0,-5.2,29.98,SSW,197,1.0,4.0,7,0.00,CLR,,0.00,WeatherDisplay:10.37,2013-05-03 06:09:00,
2013-05-02 23:19:00,58.9,-5.2,29.98,SSW,196,2.0,5.0,7,0.00,CLR,,0.00,WeatherDisplay:10.37,2013-05-03 06:19:00,
2013-05-02 23:29:00,58.7,-5.4,29.98,SSW,195,1.0,5.0,7,0.00,CLR,,0.00,WeatherDisplay:10.37,2013-05-03 06:29:00,
2013-05-02 23:39:00,58.6,-5.5,29.98,SSW,193,1.0,5.0,7,0.00,CLR,,0.00,WeatherDisplay:10.37,2013-05-03 06:39:00,
2013-05-02 23:49:00,58.6,-5.5,29.98,South,190,1.0,6.0,7,0.00,CLR,,0.00,WeatherDisplay:10.37,2013-05-03 06:49:00,
2013-05-02 23:59:00,58.6,-5.5,29.98,South,188,2.0,5.0,7,0.00,CLR,,0.00,WeatherDisplay:10.37,2013-05-03 06:59:00,